User: anonymous   Login
Location: Unspecified
(0.0000°N, 0.0000°E)
Time: 20:25:40
(UTC+00:00)
Language:

TBA - TO BE ASSIGNED - Orbit

View from above orbital plane
View from above orbital plane
View from above satellite
View from above satellite

Ground track
Ground track

The orbit is defined by the following mean orbital elements,

1 69091U          26145.59111112 +.00000000 +00000-0 +42700-4 0 00004
2 69091  89.0139 344.1292 0094729  62.4148 298.6644 14.57450285    08
Epoch (UTC): 25 May 2026 14:11:12
Eccentricity: 0.0094729
inclination: 89.0139°
perigee height: 634 km
apogee height: 768 km
right ascension of ascending node: 344.1292°
argument of perigee: 62.4148°
revolutions per day: 14.57450285
mean anomaly at epoch: 298.6644°

The dashed part of the orbit path shows where the satellite is in the earth's shadow,  

DLR